Location: Artzenheim
(48.1150°N, 7.5427°E)
Time: 10:44:38
(UTC+00:00)

Daily predictions for brighter satellites

Satellite Brightness Start Highest point End
(mag) Time Altitude Azimuth Time Altitude Azimuth Time Altitude Azimuth
SL-16 R/B 4.4 16:03:59 10° N 16:08:49 24° NW 16:13:39 10° WSW
Cosmos 1464 Rocket 4.1 16:03:34 10° S 16:09:52 68° E 16:16:13 10° NNE
Cosmos 1340 Rocket 3.2 16:06:01 10° N 16:09:56 44° ENE 16:13:51 10° SSE
SJ 16-02 2.4 16:06:08 10° NNW 16:10:23 51° WSW 16:14:37 10° S
H-2A R/B 4.4 16:07:23 10° SSW 16:10:49 38° W 16:14:15 10° NNW
CZ-4C R/B 3.3 16:06:59 10° NNE 16:10:56 89° WSW 16:14:36 10° SSW
ISS -3.3 16:09:59 10° WNW 16:13:17 47° N 16:16:36 10° E
Cosmos 1606 2.6 16:12:47 10° S 16:16:33 86° E 16:20:22 10° N
CZ-2D R/B 4.5 16:14:25 10° ESE 16:17:20 21° ENE 16:20:15 10° NNE
Lacrosse 5 rocket 2.6 16:14:22 10° NW 16:17:27 23° N 16:20:40 10° ENE
Nadezhda 4 Rocket 4.1 16:11:24 10° N 16:17:44 66° E 16:24:00 10° SSE
Cosmos 2360 4.5 16:14:46 10° NNW 16:20:19 47° NE 16:25:50 10° SE
CZ-4B R/B 4.1 16:16:15 10° ESE 16:20:29 24° ENE 16:24:42 10° N
ADEOS 4.2 16:15:41 10° S 16:20:51 63° WSW 16:26:04 10° NNW
Meteor 1-20 Rocket 4.5 16:16:16 10° N 16:21:58 51° ENE 16:27:38 10° SSE
CZ-2C R/B 4.1 16:19:46 10° NE 16:22:58 16° E 16:26:08 10° SE
Cosmos 1500 Rocket 3.7 16:18:49 10° N 16:23:10 51° ENE 16:27:28 10° SSE
CZ-4C R/B 3.4 16:16:59 10° NW 16:23:17 39° NNE 16:30:43 10° E
Cosmos 540 Rocket 4.5 16:19:29 10° SSE 16:23:42 27° E 16:27:55 10° NE
CZ-4B R/B 2.8 16:23:18 10° SSE 16:27:23 86° ENE 16:31:16 10° NNW
Cosmos 1500 4.3 16:25:41 10° NNE 16:28:38 22° ENE 16:31:34 10° ESE
SMAP 3.1 16:24:33 10° SSE 16:29:06 56° ENE 16:33:40 10° N
USA 305 3.7 16:25:14 10° W 16:29:13 40° N 16:32:56 12° ENE
CZ-2C R/B 3.0 16:26:18 10° SSE 16:31:14 83° WSW 16:36:02 10° NNW
Cosmos 1092 Rocket 4.2 16:26:14 10° N 16:32:27 52° ENE 16:38:36 10° SSE
Cosmos 468 Rocket 4.2 16:28:15 10° S 16:33:14 52° ESE 16:38:17 10° NNE
Cosmos 1898 Rocket 3.5 16:28:53 10° NNW 16:34:08 63° ENE 16:39:18 10° SE
Cosmos 44 4.2 16:29:58 10° NW 16:34:37 51° WSW 16:38:58 10° SSE
Cosmos 1805 Rocket 3.9 16:30:36 10° N 16:34:43 40° ENE 16:38:48 10° SE
Sich 1 3.7 16:31:27 10° N 16:35:20 33° ENE 16:39:14 10° SE
Cosmos 1933 3.9 16:32:53 10° SSE 16:36:38 38° E 16:40:24 10° NNE
Cosmos 2360 Rocket 4.1 16:37:41 10° NNE 16:38:53 11° NNE 16:40:07 10° NE
Cosmos 1842 Rocket 3.7 16:34:50 10° SSW 16:39:17 80° W 16:43:48 10° N
Cosmos 2221 2.9 16:35:09 10° SSW 16:39:24 69° WNW 16:43:42 10° N
PSLV R/B 4.0 16:38:57 10° SE 16:42:26 41° ENE 16:45:58 10° N
SL-08 R/B 3.9 16:40:28 10° N 16:45:09 60° WNW 16:49:43 10° SSW
Cosmos 2084 3.8 16:46:35 10° NW 16:50:51 69° SW 16:55:17 10° SSE
deb Chang Zheng 4 4.2 16:48:26 10° SE 16:52:14 31° ENE 16:56:05 10° N
AQUARIUS 4.1 16:48:13 10° SSE 16:52:41 79° ENE 16:57:12 10° NNW
Cosmos 1627 Rocket 4.5 16:47:03 10° N 16:53:13 62° ENE 16:59:15 10° SSE
H-2A R/B 2.1 16:50:05 10° SE 16:55:06 52° ENE 17:00:00 10° N
Cosmos 2034 Rocket 4.1 16:49:57 10° SSW 16:56:07 80° W 17:02:19 10° N
NOSS 2-2 (C) 4.3 16:52:25 10° NW 16:57:20 61° NE 17:04:12 10° SE
ERBS 3.8 16:55:20 10° WNW 16:58:01 24° NNW 16:59:46 16° NNE
Cosmos 1666 3.6 16:55:13 10° NNE 16:58:22 25° ENE 17:01:28 10° SE
Cosmos 2322 Rocket 3.6 16:55:11 10° N 16:58:56 18° NE 17:00:05 17° NE
USA 306 3.8 16:57:29 10° WNW 17:01:27 37° N 17:03:44 21° NE
Cosmos 2279 Rocket 4.4 16:56:43 10° SSE 17:02:20 37° E 17:07:58 10° NNE
Cosmos 1697 Rocket 2.7 16:57:02 10° NNW 17:02:42 85° WSW 17:08:19 10° SSE
USA 267 3.3 16:58:13 15° NE 17:03:47 78° NNW 17:10:19 10° WSW
Cosmos 2369 3.6 17:00:19 10° NNW 17:06:04 72° ENE 17:11:47 10° SE
Cosmos 1980 Rocket 2.2 17:00:56 10° NNW 17:06:34 59° ENE 17:12:07 10° SE
COSMO-SKYMED 1 3.2 17:05:08 18° NE 17:07:42 33° E 17:11:38 10° SSE
MOS 1-B Rocket 4.2 17:02:14 10° NNE 17:07:58 53° E 17:14:25 10° S
Cosmos 1763 Rocket 3.5 17:03:00 10° SSW 17:08:04 79° WNW 17:13:13 10° NNE
Cosmos 1939 Rocket 3.8 17:04:51 10° S 17:08:53 53° W 17:12:55 10° NNW
Meteor 1-25 Rocket 4.4 17:05:51 10° NNW 17:11:26 74° W 17:17:00 10° S
SL-24 R/B - RUBIN 2 3.5 17:06:55 10° NW 17:11:30 65° NE 17:15:48 10° SE
Meteor 2-21 4.3 17:06:12 10° N 17:12:20 76° E 17:18:22 10° SSE
Cosmos 841 Rocket 3.6 17:08:31 10° S 17:13:32 54° ESE 17:17:15 18° NE
Cosmos 1812 3.2 17:11:45 10° SSE 17:15:19 38° E 17:16:31 29° NE
Cosmos 1937 Rocket 3.6 17:10:21 10° NNW 17:15:42 83° WSW 17:21:01 10° SSE
SL-16 R/B 3.2 17:11:39 10° N 17:16:21 26° NE 17:17:26 24° ENE
Cosmos 1634 Rocket 4.0 17:11:29 10° S 17:17:46 74° E 17:24:07 10° NNE
Cosmos 1633 Rocket 3.3 17:14:30 10° N 17:18:40 42° ENE 17:22:50 10° SSE
USA 307 3.8 17:15:50 10° WNW 17:19:50 37° N 17:21:20 28° NE
USA 229 DEB 4.4 17:13:20 10° NW 17:20:34 63° WSW 17:28:15 10° SSE
YAOGAN 1 4.0 17:22:20 20° NNE 17:22:20 20° NNE 17:24:15 10° N
USA 229 4.4 17:13:26 10° NW 17:20:40 64° WSW 17:28:21 10° SSE
Cosmos 2082 Rocket 2.4 17:15:36 10° S 17:21:04 51° ESE 17:24:27 23° NE
Cosmos 2026 Rocket 4.0 17:18:01 10° N 17:24:11 83° W 17:30:15 10° S
Cosmos 2333 Rocket 4.1 17:22:07 10° N 17:24:11 12° NNE 17:24:11 12° NNE
ATLAS 2AS CENTAUR R/B 4.3 17:23:30 10° WNW 17:29:34 24° N 17:33:27 16° NE
Okean O Rocket 1.6 17:25:33 10° SSE 17:29:56 62° ENE 17:34:21 10° N
Cosmos 372 Rocket 3.9 17:24:46 10° NNW 17:30:02 86° ENE 17:35:17 10° SSE
Cosmos 2278 3.6 17:24:50 10° NNW 17:30:33 65° ENE 17:36:11 10° SE
ATLAS CENTAUR R/B 4.0 17:31:54 10° NW 17:34:05 13° NNW 17:36:14 10° N
Cosmos 1151 Rocket 3.0 17:31:56 10° S 17:36:11 61° E 17:38:07 31° NNE
Cosmos 1782 3.0 17:32:16 10° SSW 17:36:15 72° W 17:39:44 13° N
Cosmos 1655 Rocket 4.3 17:30:31 10° N 17:36:40 45° ENE 17:42:43 10° SE
USA 234 4.1 17:31:57 10° SSE 17:38:15 50° SW 17:44:35 10° WNW
COSMOS 2406 3.3 17:33:00 10° SSW 17:38:46 77° WNW 17:43:05 18° NNE
COSMOS 2455 2.8 17:34:34 10° SSW 17:40:35 78° ESE 17:43:55 28° NE
USA 308 3.6 17:38:24 10° WNW 17:42:23 37° N 17:42:51 36° NNE
Cosmos 1666 Rocket 3.5 17:39:08 10° N 17:43:38 90° ESE 17:48:02 10° S
ARGOS 3.0 17:38:13 10° SSE 17:43:39 83° ENE 17:49:05 10° NNW
Cosmos 1833 Rocket 3.3 17:39:53 10° SW 17:45:23 55° WNW 17:49:48 16° NNE
Cosmos 2180 Rocket 4.4 17:42:21 10° S 17:48:37 64° E 17:54:49 10° NNE
ISS -3.6 17:46:52 10° WNW 17:50:10 69° SW 17:50:10 69° SW
Meteor 2-6 Rocket 4.2 17:44:41 10° S 17:50:22 61° E 17:53:25 27° NNE
Cosmos 1328 Rocket 3.5 17:46:09 10° S 17:50:32 62° E 17:50:52 60° ENE
Cosmos 2219 Rocket 4.2 17:51:02 10° N 17:52:22 13° NNE 17:52:22 13° NNE
CZ-4 R/B 4.4 17:50:20 10° S 17:54:27 80° WSW 17:58:37 10° NNW
SKYMED 2 3.6 17:53:45 29° N 17:55:54 81° WNW 18:00:15 10° SSW
CZ-4 R/B 3.9 17:59:49 11° N 17:59:49 11° N 18:00:01 10° N
Lacrosse 5 rocket 1.9 17:53:25 10° NW 17:56:31 43° N 17:56:31 43° N
Landsat 5 3.3 18:00:26 79° SE 18:00:26 79° SE 18:04:18 10° SSW
NOAA 15 4.5 17:55:04 10° SSE 18:00:18 66° ENE 18:05:33 10° N
Cosmos 2298 Rocket 4.0 17:55:11 10° NNW 18:00:26 56° ENE 18:00:27 56° ENE
CZ-4B R/B 3.7 17:55:19 10° S 18:00:41 60° WSW 18:05:59 10° NNW
Cosmos 1570 Rocket 3.8 17:55:43 10° SSW 18:00:56 74° ESE 18:02:05 54° NE
Meteor 2-8 Rocket 4.3 17:55:38 10° S 18:01:44 76° E 18:07:56 10° NNE
ATLAS CENTAUR R/B 2.6 17:54:17 10° WSW 18:02:24 59° NW 18:03:21 48° NNE
SL-08 RB Rocket 3.6 17:58:50 10° SSE 18:03:28 90° SE 18:08:08 10° NNW
GEOS 3 Rocket 3.5 18:02:08 48° ESE 18:03:37 78° NE 18:08:50 10° NW
CZ-2C R/B 2.6 17:59:22 14° N 18:03:53 75° WNW 18:09:01 10° SSW
Cosmos 540 Rocket 4.3 18:00:08 10° SW 18:05:02 46° WNW 18:08:24 19° N
Meteor 1-11 Rocket 3.7 18:02:33 10° N 18:07:51 58° ENE 18:07:51 58° ENE
Cosmos 1818 3.4 18:02:52 10° NW 18:08:23 74° NE 18:09:03 65° E
Meteor 1-10 Rocket 4.2 18:02:43 10° S 18:08:25 63° E 18:09:02 59° ENE
Cosmos 1814 Rocket 3.9 18:03:26 10° SSW 18:08:41 86° WNW 18:10:08 49° NNE
USA 305 3.8 18:05:41 10° WNW 18:08:56 38° NNW 18:08:56 38° NNW
Cosmos 44 Rocket 3.2 18:07:11 10° NW 18:11:47 70° N 18:11:47 70° N
CZ-4C R/B 3.0 18:05:20 10° NW 18:12:32 79° SW 18:20:10 13° SSE
Feng Yun 1-1 Rocket 4.4 18:13:32 10° SSE 18:19:28 79° WSW 18:25:22 10° NNW
Cosmos 2360 Rocket 3.6 18:19:31 10° NNW 18:22:13 24° N 18:22:13 24° N
Cosmos 2208 Rocket 4.1 18:28:19 10° SSW 18:33:42 77° WNW 18:33:46 77° WNW
H-2A R/B 4.3 18:30:42 10° SW 18:34:48 23° W 18:38:50 10° NW
COSMO-SKYMED 1 4.4 18:42:21 23° NNW 18:43:47 28° WNW 18:47:30 10° SW
Cosmos 2322 Rocket 3.1 18:38:21 10° NNW 18:41:55 39° NNW 18:41:55 39° NNW
USA 267 3.8 18:45:34 43° N 18:46:23 44° N 18:52:30 10° W
Cosmos 1980 Rocket 4.2 18:45:37 10° NW 18:50:09 25° WSW 18:54:39 10° SSW
Cosmos 2266 Rocket 4.4 18:44:39 10° NNW 18:50:55 61° W 18:57:12 10° S
SL-16 R/B 3.0 18:55:20 10° NNW 18:59:20 46° NW 18:59:20 46° NW
Cosmos 2082 Rocket 3.6 19:00:21 10° WSW 19:05:25 32° NW 19:06:20 30° NNW
Okean O Rocket 4.4 19:03:55 10° SW 19:06:42 16° W 19:09:29 10° NW
Cosmos 2333 Rocket 4.4 19:04:56 10° NNW 19:06:12 16° NNW 19:06:12 16° NNW
ATLAS 2AS CENTAUR R/B 4.2 19:16:28 10° NW 19:20:53 27° N 19:20:53 27° N
COSMOS 2455 4.4 19:22:01 10° W 19:27:05 28° NW 19:27:05 28° NW
